Time,TemperatureF,DewpointF,PressureIn,WindDirection,WindDirectionDegrees,WindSpeedMPH,WindSpeedGustMPH,Humidity,HourlyPrecipIn,Conditions,Clouds,dailyrainin,SoftwareType,DateUTC
2013-11-30 00:08:00,19.7,16.0,30.72,SW,236,0.0,-999.0,85,-99.99,,,0.00,weatherlink.com 1.10,2013-11-30 05:08:00,
2013-11-30 00:23:00,19.3,16.0,30.72,SW,236,0.0,-999.0,87,-99.99,,,0.00,weatherlink.com 1.10,2013-11-30 05:23:00,
2013-11-30 00:38:00,18.9,16.0,30.73,SW,236,0.0,-999.0,87,-99.99,,,0.00,weatherlink.com 1.10,2013-11-30 05:38:00,
2013-11-30 00:53:00,18.7,16.0,30.73,SW,236,0.0,-999.0,87,-99.99,,,0.00,weatherlink.com 1.10,2013-11-30 05:53:00,
2013-11-30 01:08:00,18.3,15.0,30.73,SW,236,0.0,-999.0,86,-99.99,,,0.00,weatherlink.com 1.10,2013-11-30 06:08:00,
2013-11-30 01:23:00,17.9,14.0,30.73,SW,236,0.0,-999.0,86,-99.99,,,0.00,weatherlink.com 1.10,2013-11-30 06:23:00,
2013-11-30 01:38:00,17.6,14.0,30.74,SW,236,0.0,-999.0,87,-99.99,,,0.00,weatherlink.com 1.10,2013-11-30 06:38:00,
2013-11-30 01:53:00,17.5,15.0,30.74,SW,236,0.0,-999.0,88,-99.99,,,0.00,weatherlink.com 1.10,2013-11-30 06:53:00,
2013-11-30 02:08:00,17.4,15.0,30.74,SW,236,0.0,-999.0,89,-99.99,,,0.00,weatherlink.com 1.10,2013-11-30 07:08:00,
2013-11-30 02:23:00,17.2,15.0,30.74,SW,236,0.0,-999.0,89,-99.99,,,0.00,weatherlink.com 1.10,2013-11-30 07:23:00,
2013-11-30 02:38:00,16.8,14.0,30.74,SW,236,0.0,-999.0,88,-99.99,,,0.00,weatherlink.com 1.10,2013-11-30 07:38:00,
2013-11-30 02:53:00,17.0,14.0,30.74,SW,236,0.0,-999.0,88,-99.99,,,0.00,weatherlink.com 1.10,2013-11-30 07:53:00,
2013-11-30 03:08:00,17.1,14.0,30.74,SW,236,0.0,-999.0,88,-99.99,,,0.00,weatherlink.com 1.10,2013-11-30 08:08:00,
2013-11-30 03:23:00,17.0,14.0,30.74,SW,236,0.0,-999.0,88,-99.99,,,0.00,weatherlink.com 1.10,2013-11-30 08:23:00,
2013-11-30 03:38:00,17.0,14.0,30.74,SW,236,0.0,-999.0,88,-99.99,,,0.00,weatherlink.com 1.10,2013-11-30 08:38:00,
2013-11-30 03:53:00,16.8,14.0,30.74,SW,236,0.0,-999.0,88,-99.99,,,0.00,weatherlink.com 1.10,2013-11-30 08:53:00,
2013-11-30 04:08:00,16.7,14.0,30.74,SW,236,0.0,-999.0,87,-99.99,,,0.00,weatherlink.com 1.10,2013-11-30 09:08:00,
2013-11-30 04:23:00,16.4,14.0,30.74,SW,236,0.0,-999.0,88,-99.99,,,0.00,weatherlink.com 1.10,2013-11-30 09:23:00,
2013-11-30 04:38:00,16.1,13.0,30.74,SW,236,0.0,-999.0,88,-99.99,,,0.00,weatherlink.com 1.10,2013-11-30 09:38:00,
2013-11-30 04:53:00,15.9,13.0,30.74,SW,236,0.0,-999.0,88,-99.99,,,0.00,weatherlink.com 1.10,2013-11-30 09:53:00,
2013-11-30 05:08:00,15.8,13.0,30.75,SW,236,0.0,-999.0,88,-99.99,,,0.00,weatherlink.com 1.10,2013-11-30 10:08:00,
2013-11-30 05:23:00,15.5,13.0,30.75,SW,236,0.0,-999.0,89,-99.99,,,0.00,weatherlink.com 1.10,2013-11-30 10:23:00,
2013-11-30 05:38:00,15.3,13.0,30.75,SW,236,0.0,-999.0,89,-99.99,,,0.00,weatherlink.com 1.10,2013-11-30 10:38:00,
2013-11-30 05:53:00,15.2,13.0,30.75,SW,236,0.0,-999.0,90,-99.99,,,0.00,weatherlink.com 1.10,2013-11-30 10:53:00,
2013-11-30 06:08:00,15.1,13.0,30.75,SW,236,0.0,-999.0,90,-99.99,,,0.00,weatherlink.com 1.10,2013-11-30 11:08:00,
2013-11-30 06:23:00,15.1,13.0,30.75,SW,236,0.0,-999.0,91,-99.99,,,0.00,weatherlink.com 1.10,2013-11-30 11:23:00,
2013-11-30 06:38:00,14.9,13.0,30.75,SW,236,0.0,-999.0,91,-99.99,,,0.00,weatherlink.com 1.10,2013-11-30 11:38:00,
2013-11-30 06:53:00,14.7,12.0,30.75,SW,236,0.0,-999.0,90,-99.99,,,0.00,weatherlink.com 1.10,2013-11-30 11:53:00,
2013-11-30 07:08:00,14.3,12.0,30.75,SW,236,0.0,-999.0,91,-99.99,,,0.00,weatherlink.com 1.10,2013-11-30 12:08:00,
2013-11-30 07:23:00,14.2,12.0,30.75,SW,236,0.0,-999.0,91,-99.99,,,0.00,weatherlink.com 1.10,2013-11-30 12:23:00,
2013-11-30 07:38:00,14.3,12.0,30.75,SW,236,0.0,-999.0,92,-99.99,,,0.00,weatherlink.com 1.10,2013-11-30 12:38:00,
2013-11-30 07:53:00,14.6,13.0,30.75,SW,236,0.0,-999.0,92,-99.99,,,0.00,weatherlink.com 1.10,2013-11-30 12:53:00,
2013-11-30 08:08:00,15.2,14.0,30.76,SW,236,0.0,-999.0,93,-99.99,,,0.00,weatherlink.com 1.10,2013-11-30 13:08:00,
2013-11-30 08:23:00,15.9,14.0,30.77,SW,236,0.0,-999.0,93,-99.99,,,0.00,weatherlink.com 1.10,2013-11-30 13:23:00,
2013-11-30 08:38:00,17.2,15.0,30.77,SW,236,0.0,-999.0,92,-99.99,,,0.00,weatherlink.com 1.10,2013-11-30 13:38:00,
2013-11-30 08:53:00,18.8,15.0,30.76,WSW,237,0.0,-999.0,85,-99.99,,,0.00,weatherlink.com 1.10,2013-11-30 13:53:00,
2013-11-30 09:08:00,20.4,14.0,30.76,NW,309,0.0,-999.0,76,-99.99,,,0.00,weatherlink.com 1.10,2013-11-30 14:08:00,
2013-11-30 09:23:00,21.6,13.0,30.76,NW,326,1.0,-999.0,68,-99.99,,,0.00,weatherlink.com 1.10,2013-11-30 14:23:00,
2013-11-30 09:38:00,22.5,13.0,30.75,NW,324,1.0,-999.0,66,-99.99,,,0.00,weatherlink.com 1.10,2013-11-30 14:38:00,
2013-11-30 09:53:00,23.1,12.0,30.75,WNW,284,0.0,-999.0,63,-99.99,,,0.00,weatherlink.com 1.10,2013-11-30 14:53:00,
2013-11-30 10:08:00,23.8,12.0,30.75,NW,320,0.0,-999.0,61,-99.99,,,0.00,weatherlink.com 1.10,2013-11-30 15:08:00,
2013-11-30 10:23:00,24.4,13.0,30.74,NW,315,1.0,-999.0,63,-99.99,,,0.00,weatherlink.com 1.10,2013-11-30 15:23:00,
2013-11-30 10:38:00,24.9,13.0,30.73,NNW,330,0.0,-999.0,61,-99.99,,,0.00,weatherlink.com 1.10,2013-11-30 15:38:00,
2013-11-30 10:53:00,25.5,13.0,30.73,NNW,334,0.0,-999.0,60,-99.99,,,0.00,weatherlink.com 1.10,2013-11-30 15:53:00,
2013-11-30 11:08:00,26.4,14.0,30.72,SSE,167,0.0,-999.0,60,-99.99,,,0.00,weatherlink.com 1.10,2013-11-30 16:08:00,
2013-11-30 11:23:00,27.0,13.0,30.71,NNE,18,1.0,-999.0,56,-99.99,,,0.00,weatherlink.com 1.10,2013-11-30 16:23:00,
2013-11-30 11:38:00,27.5,14.0,30.70,West,261,1.0,-999.0,56,-99.99,,,0.00,weatherlink.com 1.10,2013-11-30 16:38:00,
2013-11-30 11:53:00,28.1,14.0,30.69,WNW,282,1.0,-999.0,56,-99.99,,,0.00,weatherlink.com 1.10,2013-11-30 16:53:00,
2013-11-30 12:08:00,28.5,13.0,30.68,SW,221,1.0,-999.0,53,-99.99,,,0.00,weatherlink.com 1.10,2013-11-30 17:08:00,
2013-11-30 12:23:00,29.4,14.0,30.67,WNW,290,2.0,-999.0,52,-99.99,,,0.00,weatherlink.com 1.10,2013-11-30 17:23:00,
2013-11-30 12:38:00,29.9,14.0,30.66,NNW,331,0.0,-999.0,51,-99.99,,,0.00,weatherlink.com 1.10,2013-11-30 17:38:00,
2013-11-30 12:53:00,30.2,13.0,30.65,NW,326,2.0,-999.0,48,-99.99,,,0.00,weatherlink.com 1.10,2013-11-30 17:53:00,
2013-11-30 13:08:00,31.1,13.0,30.64,NW,306,0.0,-999.0,48,-99.99,,,0.00,weatherlink.com 1.10,2013-11-30 18:08:00,
2013-11-30 13:23:00,31.0,11.0,30.63,WSW,255,1.0,-999.0,44,-99.99,,,0.00,weatherlink.com 1.10,2013-11-30 18:23:00,
2013-11-30 13:38:00,31.1,11.0,30.62,SSE,166,2.0,-999.0,44,-99.99,,,0.00,weatherlink.com 1.10,2013-11-30 18:38:00,
2013-11-30 13:53:00,31.5,13.0,30.61,South,179,0.0,-999.0,46,-99.99,,,0.00,weatherlink.com 1.10,2013-11-30 18:53:00,
2013-11-30 14:08:00,31.5,11.0,30.61,South,171,1.0,-999.0,43,-99.99,,,0.00,weatherlink.com 1.10,2013-11-30 19:08:00,
2013-11-30 14:23:00,31.5,13.0,30.61,SSW,198,1.0,-999.0,46,-99.99,,,0.00,weatherlink.com 1.10,2013-11-30 19:23:00,
2013-11-30 14:38:00,31.4,13.0,30.60,WSW,244,1.0,-999.0,46,-99.99,,,0.00,weatherlink.com 1.10,2013-11-30 19:38:00,
2013-11-30 14:53:00,31.1,14.0,30.59,SW,216,0.0,-999.0,49,-99.99,,,0.00,weatherlink.com 1.10,2013-11-30 19:53:00,
2013-11-30 15:08:00,31.0,15.0,30.59,WSW,244,1.0,-999.0,51,-99.99,,,0.00,weatherlink.com 1.10,2013-11-30 20:08:00,
2013-11-30 15:23:00,30.8,15.0,30.59,SSE,167,0.0,-999.0,53,-99.99,,,0.00,weatherlink.com 1.10,2013-11-30 20:23:00,
2013-11-30 15:38:00,30.6,16.0,30.59,WNW,294,0.0,-999.0,56,-99.99,,,0.00,weatherlink.com 1.10,2013-11-30 20:38:00,
2013-11-30 15:53:00,30.2,17.0,30.58,WSW,242,0.0,-999.0,58,-99.99,,,0.00,weatherlink.com 1.10,2013-11-30 20:53:00,
2013-11-30 16:08:00,29.8,17.0,30.58,WSW,242,0.0,-999.0,58,-99.99,,,0.00,weatherlink.com 1.10,2013-11-30 21:08:00,
2013-11-30 16:23:00,29.4,17.0,30.57,WSW,242,0.0,-999.0,60,-99.99,,,0.00,weatherlink.com 1.10,2013-11-30 21:23:00,
2013-11-30 16:38:00,28.8,17.0,30.57,WSW,242,0.0,-999.0,62,-99.99,,,0.00,weatherlink.com 1.10,2013-11-30 21:38:00,
2013-11-30 16:53:00,28.2,17.0,30.57,WSW,242,0.0,-999.0,64,-99.99,,,0.00,weatherlink.com 1.10,2013-11-30 21:53:00,
2013-11-30 17:08:00,27.8,17.0,30.56,WSW,242,0.0,-999.0,65,-99.99,,,0.00,weatherlink.com 1.10,2013-11-30 22:08:00,
2013-11-30 17:23:00,27.7,18.0,30.55,WSW,242,0.0,-999.0,66,-99.99,,,0.00,weatherlink.com 1.10,2013-11-30 22:23:00,
2013-11-30 17:38:00,27.6,18.0,30.55,WSW,242,0.0,-999.0,68,-99.99,,,0.00,weatherlink.com 1.10,2013-11-30 22:38:00,
2013-11-30 17:53:00,27.5,18.0,30.55,WSW,242,0.0,-999.0,68,-99.99,,,0.00,weatherlink.com 1.10,2013-11-30 22:53:00,
2013-11-30 18:08:00,27.7,18.0,30.54,SE,138,0.0,-999.0,68,-99.99,,,0.00,weatherlink.com 1.10,2013-11-30 23:08:00,
2013-11-30 18:23:00,27.8,19.0,30.53,SE,138,0.0,-999.0,70,-99.99,,,0.00,weatherlink.com 1.10,2013-11-30 23:23:00,
2013-11-30 18:38:00,27.5,19.0,30.52,SE,138,0.0,-999.0,70,-99.99,,,0.00,weatherlink.com 1.10,2013-11-30 23:38:00,
2013-11-30 18:53:00,27.6,20.0,30.52,SE,138,0.0,-999.0,72,-99.99,,,0.00,weatherlink.com 1.10,2013-11-30 23:53:00,
2013-11-30 19:08:00,27.9,20.0,30.51,SE,138,0.0,-999.0,72,-99.99,,,0.00,weatherlink.com 1.10,2013-12-01 00:08:00,
2013-11-30 19:23:00,28.0,20.0,30.51,SE,138,0.0,-999.0,73,-99.99,,,0.00,weatherlink.com 1.10,2013-12-01 00:23:00,
2013-11-30 19:38:00,28.3,21.0,30.50,SE,138,0.0,-999.0,74,-99.99,,,0.00,weatherlink.com 1.10,2013-12-01 00:38:00,
2013-11-30 19:53:00,28.5,21.0,30.49,SE,138,0.0,-999.0,74,-99.99,,,0.00,weatherlink.com 1.10,2013-12-01 00:53:00,
2013-11-30 20:08:00,28.6,22.0,30.49,SE,138,0.0,-999.0,75,-99.99,,,0.00,weatherlink.com 1.10,2013-12-01 01:08:00,
2013-11-30 20:23:00,28.5,21.0,30.49,SE,138,0.0,-999.0,74,-99.99,,,0.00,weatherlink.com 1.10,2013-12-01 01:23:00,
2013-11-30 20:38:00,28.6,21.0,30.48,SE,138,0.0,-999.0,74,-99.99,,,0.00,weatherlink.com 1.10,2013-12-01 01:38:00,
2013-11-30 20:53:00,28.7,21.0,30.47,SE,138,0.0,-999.0,74,-99.99,,,0.00,weatherlink.com 1.10,2013-12-01 01:53:00,
2013-11-30 21:08:00,28.8,22.0,30.46,SE,138,0.0,-999.0,74,-99.99,,,0.00,weatherlink.com 1.10,2013-12-01 02:08:00,
2013-11-30 21:23:00,28.9,22.0,30.46,SE,138,0.0,-999.0,74,-99.99,,,0.00,weatherlink.com 1.10,2013-12-01 02:23:00,
2013-11-30 21:38:00,28.9,22.0,30.45,SE,138,0.0,-999.0,74,-99.99,,,0.00,weatherlink.com 1.10,2013-12-01 02:38:00,
2013-11-30 21:53:00,29.0,22.0,30.45,SE,138,0.0,-999.0,75,-99.99,,,0.00,weatherlink.com 1.10,2013-12-01 02:53:00,
2013-11-30 22:08:00,29.1,22.0,30.44,SE,138,0.0,-999.0,76,-99.99,,,0.00,weatherlink.com 1.10,2013-12-01 03:08:00,
2013-11-30 22:23:00,29.2,23.0,30.43,SE,138,0.0,-999.0,76,-99.99,,,0.00,weatherlink.com 1.10,2013-12-01 03:23:00,
2013-11-30 22:38:00,29.3,23.0,30.43,SE,138,0.0,-999.0,77,-99.99,,,0.00,weatherlink.com 1.10,2013-12-01 03:38:00,
2013-11-30 22:53:00,29.4,23.0,30.42,SE,138,0.0,-999.0,77,-99.99,,,0.00,weatherlink.com 1.10,2013-12-01 03:53:00,
2013-11-30 23:08:00,29.6,23.0,30.42,SE,138,0.0,-999.0,77,-99.99,,,0.00,weatherlink.com 1.10,2013-12-01 04:08:00,
2013-11-30 23:23:00,29.7,23.0,30.41,SE,138,0.0,-999.0,77,-99.99,,,0.00,weatherlink.com 1.10,2013-12-01 04:23:00,
2013-11-30 23:38:00,29.8,24.0,30.39,SE,138,0.0,-999.0,78,-99.99,,,0.00,weatherlink.com 1.10,2013-12-01 04:38:00,
2013-11-30 23:53:00,29.9,24.0,30.38,SE,138,0.0,-999.0,79,-99.99,,,0.00,weatherlink.com 1.10,2013-12-01 04:53:00,